TimeMST,TemperatureF,Dew PointF,Humidity,Sea Level PressureIn,VisibilityMPH,Wind Direction,Wind SpeedMPH,Gust SpeedMPH,PrecipitationIn,Events,Conditions,WindDirDegrees,DateUTC
5:16 PM,25.0,22.8,91,29.80,1.5,East,3.5,-,N/A,Snow,Light Snow,100,2013-02-22 00:16:00
5:36 PM,24.6,22.6,92,29.81,1.8,East,3.5,-,N/A,Snow,Light Snow,80,2013-02-22 00:36:00
5:56 PM,23.9,22.1,93,29.82,1.8,East,4.6,-,N/A,Snow,Light Snow,90,2013-02-22 00:56:00
6:16 PM,23.9,22.1,93,29.83,5.0,East,3.5,-,N/A,Snow,Light Snow,80,2013-02-22 01:16:00
6:36 PM,23.0,21.0,92,29.84,7.0,Calm,Calm,-,N/A,Snow,Light Snow,0,2013-02-22 01:36:00
6:56 PM,20.5,19.0,94,29.84,7.0,ESE,3.5,-,N/A,,Scattered Clouds,120,2013-02-22 01:56:00
7:16 PM,19.4,18.7,97,29.85,10.0,Calm,Calm,-,N/A,,Clear,0,2013-02-22 02:16:00
7:36 PM,18.5,18.0,98,29.85,5.0,Calm,Calm,-,N/A,,Clear,0,2013-02-22 02:36:00
7:56 PM,18.0,17.2,97,29.85,1.2,Calm,Calm,-,N/A,,Mist,0,2013-02-22 02:56:00
8:16 PM,17.4,16.5,96,29.85,5.0,Calm,Calm,-,N/A,,Clear,0,2013-02-22 03:16:00
8:36 PM,15.4,14.2,95,29.86,7.0,SSW,4.6,-,N/A,,Clear,210,2013-02-22 03:36:00
8:56 PM,15.3,14.2,95,29.86,10.0,SSW,3.5,-,N/A,,Scattered Clouds,210,2013-02-22 03:56:00
9:16 PM,18.0,17.1,96,29.86,10.0,Calm,Calm,-,N/A,,Scattered Clouds,0,2013-02-22 04:16:00
9:36 PM,16.5,15.4,96,29.86,10.0,Calm,Calm,-,N/A,,Clear,0,2013-02-22 04:36:00
9:56 PM,14.2,12.9,95,29.86,7.0,Calm,Calm,-,N/A,,Clear,0,2013-02-22 04:56:00
10:16 PM,14.5,13.3,95,29.85,7.0,Calm,Calm,-,N/A,,Scattered Clouds,0,2013-02-22 05:16:00
10:36 PM,13.5,12.2,95,29.85,10.0,Calm,Calm,-,N/A,,Mostly Cloudy,0,2013-02-22 05:36:00
10:56 PM,14.9,13.8,95,29.84,10.0,Calm,Calm,-,N/A,,Scattered Clouds,0,2013-02-22 05:56:00
11:16 PM,13.3,11.7,93,29.84,7.0,South,4.6,-,N/A,,Clear,190,2013-02-22 06:16:00
11:36 PM,14.4,13.1,95,29.84,7.0,SSW,3.5,-,N/A,,Clear,210,2013-02-22 06:36:00
11:56 PM,14.0,12.9,95,29.84,10.0,Calm,Calm,-,N/A,,Clear,0,2013-02-22 06:56:00